M I D A S
Marine Information and Data Acquisition System
Tripno 2088 of the Zeeleeuw from 2011-02-15 05:59:19 to 2011-02-15 14:27:17
Back to CruiseResearch ActivitiesStationsMapUnderway DataData graphs

EquipmentUnitsComments
TimeDGPSUTC
LatitudeDGPSDM.mWGS84
LongitudeDGPSDM.mWGS84
SpeedMeteo Stationm/sRelative wind speed
DirectionMeteo StationdegRelative wind direction
TemperatureMeteo Stationdeg CelciusAir temperature
PressureMeteo StationPaAtmospheric pressure
HumidityMeteo Station%Relative humidity
Missing or incorrect values are displayed as -999
Metereological data collected by the RV Zeeleeuw from 2011-02-15 05:54:16 to 2011-02-15 15:52:14
Time Latitude Longitude Speed Direction Temperature Pressure Humidity
2011-02-15 05:55 51°13.662 2°55.959 0.1 344 3.9 99850 49
2011-02-15 05:56 51°13.662 2°55.959 -999 339 3.9 99850 48
2011-02-15 05:57 51°13.661 2°55.959 -999 337 3.9 99840 49
2011-02-15 05:58 51°13.662 2°55.96 -999 343 3.9 99840 49
2011-02-15 05:59 51°13.662 2°55.96 0.7 336 3.9 99840 49
2011-02-15 06:00 51°13.661 2°55.96 0.1 348 3.9 99840 49
2011-02-15 06:01 51°13.66 2°55.959 0.1 352 3.9 99830 49
2011-02-15 06:02 51°13.676 2°55.891 0.1 357 3.9 99830 49
2011-02-15 06:03 51°13.693 2°55.789 -999 1 3.9 99830 49
2011-02-15 06:04 51°13.698 2°55.737 0.4 15 3.9 99830 49
2011-02-15 06:05 51°13.715 2°55.746 -999 28 3.9 99830 49
2011-02-15 06:06 51°13.765 2°55.704 -999 25 3.9 99840 49
2011-02-15 06:07 51°13.872 2°55.604 -999 356 3.9 99830 49
2011-02-15 06:08 51°14.019 2°55.498 -999 353 4 99830 49
2011-02-15 06:09 51°14.168 2°55.39 -999 335 4 99830 49
2011-02-15 06:10 51°14.315 2°55.248 -999 23 4 99830 49
2011-02-15 06:11 51°14.469 2°55.077 -999 23 4 99830 49
2011-02-15 06:12 51°14.637 2°54.884 -999 22 4 99830 49
2011-02-15 06:13 51°14.815 2°54.682 -999 23 4.1 99820 49
2011-02-15 06:14 51°14.985 2°54.467 -999 24 4.1 99820 49
2011-02-15 06:15 51°15.154 2°54.249 0.8 246 4.1 99820 49
2011-02-15 06:16 51°15.322 2°54.03 0.4 263 4.2 99820 49
2011-02-15 06:17 51°15.49 2°53.809 2.9 253 4.2 99820 48
2011-02-15 06:18 51°15.653 2°53.581 0.1 255 4.2 99820 49
2011-02-15 06:19 51°15.838 2°53.412 -999 23 4.2 99820 49
2011-02-15 06:20 51°16.034 2°53.271 0.3 255 4.2 99810 49
2011-02-15 06:21 51°16.229 2°53.128 0.1 269 4.3 99810 49
2011-02-15 06:22 51°16.423 2°52.979 -999 263 4.3 99810 49
2011-02-15 06:23 51°16.615 2°52.827 -999 30 4.2 99810 49
2011-02-15 06:24 51°16.808 2°52.685 0.1 23 4.2 99810 49
2011-02-15 06:25 51°17.001 2°52.55 -999 22 4.2 99810 49
2011-02-15 06:26 51°17.205 2°52.488 -999 23 4.3 99810 49
2011-02-15 06:27 51°17.415 2°52.478 -999 29 4.3 99800 49
2011-02-15 06:28 51°17.624 2°52.464 -999 16 4.3 99800 49
2011-02-15 06:29 51°17.834 2°52.449 0.9 26 4.4 99800 49
2011-02-15 06:30 51°18.043 2°52.433 -999 23 4.4 99800 49
2011-02-15 06:31 51°18.253 2°52.411 -999 33 4.4 99800 49
2011-02-15 06:32 51°18.463 2°52.394 -999 22 4.4 99800 49
2011-02-15 06:33 51°18.673 2°52.368 -999 39 4.5 99800 49
2011-02-15 06:34 51°18.883 2°52.344 -999 29 4.5 99800 49
2011-02-15 06:35 51°19.093 2°52.318 -999 28 4.5 99790 49
2011-02-15 06:36 51°19.302 2°52.291 -999 25 4.5 99800 49
2011-02-15 06:37 51°19.511 2°52.277 -999 10 4.5 99790 49
2011-02-15 06:38 51°19.722 2°52.283 -999 28 4.6 99790 49
2011-02-15 06:39 51°19.933 2°52.287 -999 21 4.6 99790 49
2011-02-15 06:40 51°20.145 2°52.288 -999 25 4.6 99790 49
2011-02-15 06:41 51°20.356 2°52.306 -999 18 4.6 99790 49
2011-02-15 06:42 51°20.565 2°52.347 -999 16 4.6 99780 49
2011-02-15 06:43 51°20.775 2°52.388 -999 19 4.6 99780 49
2011-02-15 06:44 51°20.985 2°52.422 -999 25 4.7 99780 49
2011-02-15 06:45 51°21.197 2°52.453 -999 23 4.6 99790 49
2011-02-15 06:46 51°21.409 2°52.491 -999 20 4.6 99780 49
2011-02-15 06:47 51°21.622 2°52.521 -999 20 4.6 99780 49
2011-02-15 06:48 51°21.834 2°52.555 4.2 14 4.6 99780 49
2011-02-15 06:49 51°22.047 2°52.589 4.2 22 4.6 99780 49
2011-02-15 06:50 51°22.26 2°52.63 3.2 18 4.6 99770 49
2011-02-15 06:51 51°22.473 2°52.665 3.3 19 4.6 99770 49
2011-02-15 06:52 51°22.686 2°52.698 4.1 18 4.6 99780 48
2011-02-15 06:53 51°22.897 2°52.737 5.1 17 4.6 99780 48
2011-02-15 06:54 51°23.105 2°52.803 4.1 17 4.6 99770 50
2011-02-15 06:55 51°23.312 2°52.873 3.8 20 4.6 99770 50
2011-02-15 06:56 51°23.52 2°52.936 3.7 20 4.6 99770 50
2011-02-15 06:57 51°23.729 2°53.001 4.7 23 4.6 99770 50
2011-02-15 06:58 51°23.938 2°53.058 3.6 21 4.6 99770 51
2011-02-15 06:59 51°24.146 2°53.12 4.2 13 4.6 99770 48
2011-02-15 07:00 51°24.353 2°53.185 3.9 18 4.6 99780 50
2011-02-15 07:01 51°24.56 2°53.251 4.9 25 4.6 99770 49
2011-02-15 07:02 51°24.767 2°53.313 5.1 18 4.6 99780 48
2011-02-15 07:03 51°24.973 2°53.384 4 19 4.5 99780 48
2011-02-15 07:04 51°25.181 2°53.448 3.6 21 4.6 99780 48
2011-02-15 07:05 51°25.39 2°53.506 4.3 17 4.5 99770 50
2011-02-15 07:06 51°25.598 2°53.569 6.4 20 4.5 99780 50
2011-02-15 07:07 51°25.806 2°53.635 3.8 19 4.5 99780 50
2011-02-15 07:08 51°26.017 2°53.691 3.7 28 4.5 99770 48
2011-02-15 07:09 51°26.227 2°53.752 3.5 17 4.5 99780 48
2011-02-15 07:10 51°26.438 2°53.816 3.9 23 4.6 99780 49
2011-02-15 07:11 51°26.649 2°53.874 4 26 4.6 99780 50
2011-02-15 07:12 51°26.86 2°53.938 4.4 18 4.6 99780 50
2011-02-15 07:13 51°27.07 2°54.005 6.3 19 4.6 99780 48
2011-02-15 07:14 51°27.28 2°54.066 0.4 30 4.6 99780 49
2011-02-15 07:15 51°27.489 2°54.136 4.1 24 4.5 99780 49
2011-02-15 07:16 51°27.702 2°54.188 -999 23 4.5 99780 49
2011-02-15 07:17 51°27.916 2°54.204 0.1 19 4.5 99780 50
2011-02-15 07:18 51°28.126 2°54.251 4 24 4.5 99780 50
2011-02-15 07:19 51°28.335 2°54.302 3.1 26 4.5 99780 48
2011-02-15 07:20 51°28.545 2°54.349 3.8 23 4.5 99770 50
2011-02-15 07:21 51°28.755 2°54.399 3.9 23 4.5 99770 49
2011-02-15 07:22 51°28.968 2°54.45 1.8 24 4.5 99770 48
2011-02-15 07:23 51°29.183 2°54.502 2.2 22 4.5 99770 49
2011-02-15 07:24 51°29.398 2°54.544 3.1 31 4.5 99770 48
2011-02-15 07:25 51°29.613 2°54.594 4.6 19 4.5 99760 48
2011-02-15 07:26 51°29.827 2°54.651 4.6 25 4.5 99770 49
2011-02-15 07:27 51°30.041 2°54.704 3.9 25 4.5 99760 50
2011-02-15 07:28 51°30.257 2°54.76 4.9 21 4.5 99760 49
2011-02-15 07:29 51°30.474 2°54.817 4.6 25 4.5 99760 50
2011-02-15 07:30 51°30.691 2°54.868 2.1 22 4.5 99760 51
2011-02-15 07:31 51°30.904 2°54.922 3.5 15 4.5 99750 48
2011-02-15 07:32 51°31.113 2°54.967 0.6 29 4.5 99760 51
2011-02-15 07:33 51°31.317 2°55.066 2.8 20 4.6 99750 49
2011-02-15 07:34 51°31.518 2°55.173 4.9 23 4.5 99750 48
2011-02-15 07:35 51°31.72 2°55.276 5.2 22 4.6 99760 48
2011-02-15 07:36 51°31.92 2°55.386 4.1 18 4.6 99750 51
2011-02-15 07:37 51°32.116 2°55.488 6.1 31 4.6 99750 48
2011-02-15 07:38 51°32.257 2°55.57 5.1 27 4.6 99760 50
2011-02-15 07:39 51°32.372 2°55.638 8.5 32 4.6 99760 50
2011-02-15 07:40 51°32.472 2°55.69 5.2 36 4.5 99750 49
2011-02-15 07:41 51°32.561 2°55.687 5.2 20 4.6 99740 50
2011-02-15 07:42 51°32.634 2°55.666 5.4 22 4.6 99750 50
2011-02-15 07:43 51°32.687 2°55.646 4.2 27 4.6 99750 49
2011-02-15 07:44 51°32.722 2°55.622 6.9 24 5.1 99750 50
2011-02-15 07:45 51°32.74 2°55.584 6.6 268 5 99740 48
2011-02-15 07:46 51°32.744 2°55.55 7 262 4.8 99740 48
2011-02-15 07:47 51°32.747 2°55.527 10.1 260 4.8 99750 50
2011-02-15 07:48 51°32.75 2°55.512 11.4 284 4.7 99750 48
2011-02-15 07:49 51°32.754 2°55.506 9.4 253 4.7 99740 50
2011-02-15 07:50 51°32.762 2°55.503 11.2 258 4.7 99730 49
2011-02-15 07:51 51°32.767 2°55.497 12.2 254 4.7 99730 50
2011-02-15 07:52 51°32.765 2°55.464 8.8 254 4.7 99730 49
2011-02-15 07:53 51°32.752 2°55.415 9.6 18 4.7 99720 50
2011-02-15 07:54 51°32.736 2°55.37 8.8 249 4.7 99730 50
2011-02-15 07:55 51°32.722 2°55.336 7.2 246 4.7 99730 48
2011-02-15 07:56 51°32.711 2°55.309 7.8 20 4.7 99720 49
2011-02-15 07:57 51°32.703 2°55.288 10.4 20 4.7 99720 50
2011-02-15 07:58 51°32.691 2°55.264 11.7 22 4.7 99720 49
2011-02-15 07:59 51°32.631 2°55.301 9.2 350 4.6 99720 49
2011-02-15 08:00 51°32.67 2°55.455 8.4 18 4.6 99720 50
2011-02-15 08:01 51°32.755 2°55.628 9.4 10 4.6 99730 48
2011-02-15 08:02 51°32.765 2°55.762 10 349 4.6 99720 48
2011-02-15 08:03 51°32.723 2°55.826 10.6 324 4.6 99720 50
2011-02-15 08:04 51°32.687 2°55.801 8.6 283 4.6 99700 50
2011-02-15 08:05 51°32.676 2°55.758 10.9 255 4.6 99720 50
2011-02-15 08:06 51°32.672 2°55.731 9 252 4.7 99720 50
2011-02-15 08:07 51°32.672 2°55.715 7.7 251 4.7 99720 49
2011-02-15 08:08 51°32.676 2°55.708 11.2 253 4.7 99730 49
2011-02-15 08:09 51°32.683 2°55.703 10.7 254 4.6 99730 49
2011-02-15 08:10 51°32.692 2°55.704 10.3 258 4.6 99720 50
2011-02-15 08:11 51°32.702 2°55.705 10 258 4.6 99720 50
2011-02-15 08:12 51°32.712 2°55.707 8.3 261 4.6 99720 49
2011-02-15 08:13 51°32.718 2°55.695 9.6 286 4.7 99710 49
2011-02-15 08:14 51°32.713 2°55.664 8.5 249 4.7 99700 49
2011-02-15 08:15 51°32.705 2°55.626 10.1 283 4.7 99700 50
2011-02-15 08:16 51°32.693 2°55.59 9.1 247 4.7 99690 49
2011-02-15 08:17 51°32.681 2°55.56 10.4 17 4.7 99700 49
2011-02-15 08:18 51°32.672 2°55.541 8.3 19 4.7 99700 48
2011-02-15 08:19 51°32.668 2°55.528 8.6 23 4.6 99700 49
2011-02-15 08:20 51°32.663 2°55.519 9.5 20 4.6 99700 50
2011-02-15 08:21 51°32.66 2°55.513 9.7 21 4.6 99690 50
2011-02-15 08:22 51°32.658 2°55.507 8.3 20 4.6 99700 49
2011-02-15 08:23 51°32.658 2°55.5 8.8 20 4.7 99690 50
2011-02-15 08:24 51°32.659 2°55.493 10.5 284 4.6 99700 49
2011-02-15 08:25 51°32.659 2°55.486 8.9 287 4.6 99700 50
2011-02-15 08:26 51°32.659 2°55.479 8.4 21 4.6 99690 50
2011-02-15 08:27 51°32.66 2°55.474 8.4 248 4.6 99690 49
2011-02-15 08:28 51°32.662 2°55.47 9.9 244 4.7 99700 50
2011-02-15 08:29 51°32.667 2°55.464 7.5 251 4.7 99690 48
2011-02-15 08:30 51°32.672 2°55.459 10.1 253 4.7 99700 50
2011-02-15 08:31 51°32.679 2°55.455 8.8 253 4.7 99690 50
2011-02-15 08:32 51°32.683 2°55.451 10.5 252 4.7 99690 49
2011-02-15 08:33 51°32.688 2°55.447 10.6 251 4.7 99680 48
2011-02-15 08:34 51°32.692 2°55.441 10.2 18 4.7 99680 49
2011-02-15 08:35 51°32.695 2°55.433 8 280 4.7 99690 50
2011-02-15 08:36 51°32.696 2°55.426 8.3 286 4.7 99690 49
2011-02-15 08:37 51°32.699 2°55.421 7.9 250 4.8 99680 50
2011-02-15 08:38 51°32.701 2°55.415 8.8 248 4.8 99690 49
2011-02-15 08:39 51°32.703 2°55.41 8.9 23 4.8 99690 50
2011-02-15 08:40 51°32.707 2°55.405 10 19 4.8 99680 50
2011-02-15 08:41 51°32.711 2°55.399 10.7 248 4.8 99680 48
2011-02-15 08:42 51°32.714 2°55.394 8.7 248 4.8 99680 50
2011-02-15 08:43 51°32.716 2°55.388 8.2 249 4.8 99680 50
2011-02-15 08:44 51°32.721 2°55.383 9.8 278 4.9 99680 49
2011-02-15 08:45 51°32.728 2°55.38 8.5 286 4.8 99680 50
2011-02-15 08:46 51°32.738 2°55.381 9.9 280 4.8 99670 49
2011-02-15 08:47 51°32.752 2°55.386 10.4 251 4.8 99670 49
2011-02-15 08:48 51°32.768 2°55.393 8.6 258 4.8 99680 50
2011-02-15 08:49 51°32.784 2°55.402 8.9 262 4.8 99680 50
2011-02-15 08:50 51°32.802 2°55.412 7.3 261 4.8 99680 50
2011-02-15 08:51 51°32.817 2°55.416 8.1 261 4.8 99690 50
2011-02-15 08:52 51°32.829 2°55.412 10.1 256 4.8 99670 49
2011-02-15 08:53 51°32.829 2°55.389 11.4 20 4.8 99660 50
2011-02-15 08:54 51°32.821 2°55.362 8.5 26 4.8 99660 48
2011-02-15 08:55 51°32.813 2°55.342 8.3 251 4.9 99650 49
2011-02-15 08:56 51°32.812 2°55.32 9.8 255 4.9 99660 50
2011-02-15 08:57 51°32.814 2°55.272 10.3 257 4.9 99670 48
2011-02-15 08:58 51°32.814 2°55.208 10.1 258 4.9 99660 49
2011-02-15 08:59 51°32.811 2°55.151 9.1 254 4.9 99650 48
2011-02-15 09:00 51°32.81 2°55.118 11.8 254 4.9 99660 49
2011-02-15 09:01 51°32.811 2°55.1 8.9 250 4.8 99660 50
2011-02-15 09:02 51°32.814 2°55.089 9.4 251 4.8 99650 49
2011-02-15 09:03 51°32.817 2°55.084 8.8 251 4.9 99650 48
2011-02-15 09:04 51°32.823 2°55.081 7.8 18 4.9 99660 48
2011-02-15 09:05 51°32.828 2°55.079 7.6 247 4.9 99650 48
2011-02-15 09:06 51°32.837 2°55.078 9.4 252 5 99660 48
2011-02-15 09:07 51°32.845 2°55.078 8.5 249 4.9 99650 49
2011-02-15 09:08 51°32.854 2°55.077 8.2 251 4.9 99660 49
2011-02-15 09:09 51°32.862 2°55.077 7.5 253 4.9 99650 49
2011-02-15 09:10 51°32.87 2°55.078 7.3 251 5 99640 49
2011-02-15 09:11 51°32.877 2°55.077 10.2 19 5 99640 50
2011-02-15 09:12 51°32.885 2°55.077 9.6 254 5 99640 49
2011-02-15 09:13 51°32.894 2°55.076 8.8 248 5 99640 48
2011-02-15 09:14 51°32.903 2°55.076 7.7 249 5 99640 50
2011-02-15 09:15 51°32.911 2°55.076 8.8 253 4.9 99640 49
2011-02-15 09:16 51°32.919 2°55.078 9.2 248 4.9 99630 48
2011-02-15 09:17 51°32.929 2°55.079 9.1 250 5 99630 50
2011-02-15 09:18 51°32.94 2°55.08 11.2 254 5 99630 48
2011-02-15 09:19 51°32.949 2°55.079 7.9 22 4.9 99630 48
2011-02-15 09:20 51°32.957 2°55.08 7.4 21 5 99630 49
2011-02-15 09:21 51°32.967 2°55.078 9.9 255 5.1 99630 49
2011-02-15 09:22 51°32.975 2°55.076 8.2 252 5.1 99630 50
2011-02-15 09:23 51°32.983 2°55.075 7.9 250 5.1 99640 49
2011-02-15 09:24 51°32.991 2°55.073 9 22 5.1 99630 49
2011-02-15 09:25 51°33 2°55.073 9.5 249 5 99630 48
2011-02-15 09:26 51°33.007 2°55.073 7.6 21 5.1 99630 48
2011-02-15 09:27 51°33.015 2°55.074 8.5 22 5.2 99620 49
2011-02-15 09:28 51°33.027 2°55.076 9.5 22 5.2 99610 50
2011-02-15 09:29 51°33.037 2°55.077 7.4 23 5.1 99610 48
2011-02-15 09:30 51°33.047 2°55.077 7 249 5.1 99610 48
2011-02-15 09:31 51°33.059 2°55.077 8 250 5.1 99620 49
2011-02-15 09:32 51°33.072 2°55.081 7.6 252 5.2 99610 50
2011-02-15 09:33 51°33.086 2°55.084 9 251 5.2 99630 48
2011-02-15 09:34 51°33.101 2°55.086 8.6 255 5.2 99630 48
2011-02-15 09:35 51°33.115 2°55.088 11.2 253 5.2 99640 48
2011-02-15 09:36 51°33.127 2°55.091 7.7 252 5.2 99630 48
2011-02-15 09:37 51°33.141 2°55.094 6.8 255 5.2 99620 49
2011-02-15 09:38 51°33.153 2°55.098 9.6 254 5.2 99620 48
2011-02-15 09:39 51°33.165 2°55.101 8.8 249 5.3 99620 49
2011-02-15 09:40 51°33.178 2°55.108 8.3 256 5.2 99610 48
2011-02-15 09:41 51°33.191 2°55.114 8.9 257 5.3 99610 49
2011-02-15 09:42 51°33.203 2°55.12 12 255 5.3 99620 48
2011-02-15 09:43 51°33.213 2°55.123 9.7 253 5.3 99620 48
2011-02-15 09:44 51°33.224 2°55.126 9 251 5.3 99620 48
2011-02-15 09:45 51°33.234 2°55.128 10.2 251 5.2 99610 49
2011-02-15 09:46 51°33.249 2°55.132 9.9 251 5.2 99580 49
2011-02-15 09:47 51°33.264 2°55.135 9.9 254 5.2 99590 48
2011-02-15 09:48 51°33.279 2°55.14 11.3 257 5.3 99590 49
2011-02-15 09:49 51°33.293 2°55.149 8.4 251 5.3 99580 49
2011-02-15 09:50 51°33.298 2°55.151 4.4 21 5.3 99580 49
2011-02-15 09:51 51°33.261 2°55.152 10.8 21 5.3 99570 49
2011-02-15 09:52 51°33.212 2°55.183 9.1 331 5.3 99570 49
2011-02-15 09:53 51°33.21 2°55.262 9.8 359 5.3 99570 49
2011-02-15 09:54 51°33.232 2°55.302 8 7 5.3 99580 48
2011-02-15 09:55 51°33.258 2°55.333 7.9 19 5.2 99570 49
2011-02-15 09:56 51°33.284 2°55.359 7.3 15 5.3 99570 49
2011-02-15 09:57 51°33.309 2°55.384 6.7 18 5.2 99580 48
2011-02-15 09:58 51°33.334 2°55.406 8.9 21 5.3 99570 49
2011-02-15 09:59 51°33.358 2°55.426 6.5 22 5.2 99570 47
2011-02-15 10:00 51°33.383 2°55.446 6.6 24 5.3 99570 49
2011-02-15 10:01 51°33.41 2°55.506 8 356 5.3 99570 49
2011-02-15 10:02 51°33.4 2°55.594 8.3 322 5.3 99550 49
2011-02-15 10:03 51°33.363 2°55.588 9.8 26 5.3 99540 49
2011-02-15 10:04 51°33.314 2°55.541 10.2 26 5.4 99550 48
2011-02-15 10:05 51°33.273 2°55.503 8.8 27 5.5 99550 49
2011-02-15 10:06 51°33.254 2°55.485 8.1 24 5.5 99560 48
2011-02-15 10:07 51°33.254 2°55.482 7.3 25 5.5 99560 48
2011-02-15 10:08 51°33.273 2°55.491 6.9 22 5.6 99550 49
2011-02-15 10:09 51°33.296 2°55.503 7.7 260 5.6 99560 49
2011-02-15 10:10 51°33.32 2°55.515 5.5 265 5.6 99560 47
2011-02-15 10:11 51°33.345 2°55.528 6 260 5.6 99560 48
2011-02-15 10:12 51°33.37 2°55.543 6.9 26 5.6 99570 47
2011-02-15 10:13 51°33.396 2°55.558 7 266 5.5 99560 49
2011-02-15 10:14 51°33.408 2°55.546 11.6 250 5.4 99550 47
2011-02-15 10:15 51°33.396 2°55.527 9.7 21 5.5 99540 48
2011-02-15 10:16 51°33.354 2°55.495 11.1 24 5.4 99540 48
2011-02-15 10:17 51°33.293 2°55.448 11.5 20 5.4 99540 47
2011-02-15 10:18 51°33.229 2°55.406 6.2 19 5.4 99530 48
2011-02-15 10:19 51°33.201 2°55.366 9.1 18 5.4 99530 48
2011-02-15 10:20 51°33.186 2°55.341 10.1 20 5.4 99540 47
2011-02-15 10:21 51°33.177 2°55.329 8.6 21 5.4 99530 47
2011-02-15 10:22 51°33.168 2°55.311 9 249 5.4 99540 48
2011-02-15 10:23 51°33.169 2°55.266 8.1 26 5.4 99540 47
2011-02-15 10:24 51°33.211 2°55.223 4 21 5.3 99550 47
2011-02-15 10:25 51°33.27 2°55.235 7.3 34 5.3 99540 47
2011-02-15 10:26 51°33.305 2°55.26 9 26 5.3 99540 49
2011-02-15 10:27 51°33.332 2°55.28 8.1 25 5.3 99540 47
2011-02-15 10:28 51°33.357 2°55.296 6.6 19 5.3 99540 49
2011-02-15 10:29 51°33.381 2°55.314 6.5 15 5.3 99550 49
2011-02-15 10:30 51°33.405 2°55.329 7.7 12 5.4 99540 48
2011-02-15 10:31 51°33.432 2°55.348 8.5 10 5.3 99530 49
2011-02-15 10:32 51°33.46 2°55.396 9.1 355 5.3 99520 48
2011-02-15 10:33 51°33.473 2°55.47 8.2 337 5.3 99540 48
2011-02-15 10:34 51°33.46 2°55.525 6.2 316 5.3 99530 48
2011-02-15 10:35 51°33.421 2°55.53 7 19 5.4 99520 48
2011-02-15 10:36 51°33.355 2°55.508 8.3 24 5.4 99520 49
2011-02-15 10:37 51°33.279 2°55.47 7.9 20 5.5 99510 48
2011-02-15 10:38 51°33.213 2°55.39 8.1 26 5.5 99520 48
2011-02-15 10:39 51°33.147 2°55.307 7.3 21 5.6 99500 49
2011-02-15 10:40 51°33.09 2°55.226 9.9 19 5.6 99500 46
2011-02-15 10:41 51°33.058 2°55.182 8.5 23 5.6 99500 48
2011-02-15 10:42 51°33.047 2°55.162 8.3 19 5.6 99510 47
2011-02-15 10:43 51°33.048 2°55.158 9.5 19 5.6 99510 48
2011-02-15 10:44 51°33.057 2°55.161 7.4 23 5.6 99510 47
2011-02-15 10:45 51°33.059 2°55.157 9.1 246 5.7 99510 47
2011-02-15 10:46 51°33.048 2°55.123 8.9 252 5.7 99510 48
2011-02-15 10:47 51°33.047 2°55.103 7.7 252 5.7 99510 48
2011-02-15 10:48 51°33.057 2°55.098 9.6 251 5.7 99510 46
2011-02-15 10:49 51°33.074 2°55.101 7.8 254 5.7 99510 49
2011-02-15 10:50 51°33.096 2°55.104 9.8 256 5.7 99510 49
2011-02-15 10:51 51°33.118 2°55.112 8.7 254 5.7 99520 48
2011-02-15 10:52 51°33.143 2°55.121 7.4 260 5.8 99520 49
2011-02-15 10:53 51°33.169 2°55.134 4 263 5.8 99510 47
2011-02-15 10:54 51°33.197 2°55.149 5.7 267 5.8 99520 48
2011-02-15 10:55 51°33.223 2°55.164 7.1 267 5.7 99510 48
2011-02-15 10:56 51°33.251 2°55.18 5.9 264 5.7 99520 47
2011-02-15 10:57 51°33.278 2°55.197 5.8 269 5.7 99510 49
2011-02-15 10:58 51°33.303 2°55.213 6.8 269 5.6 99510 47
2011-02-15 10:59 51°33.328 2°55.227 6.7 266 5.6 99520 47
2011-02-15 11:00 51°33.354 2°55.243 7.1 270 5.6 99520 48
2011-02-15 11:01 51°33.38 2°55.257 6.3 270 5.6 99510 46
2011-02-15 11:02 51°33.402 2°55.267 4.5 259 5.5 99510 48
2011-02-15 11:03 51°33.398 2°55.251 6.4 23 5.6 99510 48
2011-02-15 11:04 51°33.37 2°55.29 9.6 330 5.7 99510 46
2011-02-15 11:05 51°33.337 2°55.394 7.3 339 5.6 99510 49
2011-02-15 11:06 51°33.301 2°55.519 8.5 333 5.6 99510 48
2011-02-15 11:07 51°33.25 2°55.633 7.6 329 5.6 99500 48
2011-02-15 11:08 51°33.198 2°55.738 6.5 330 5.6 99500 47
2011-02-15 11:09 51°33.17 2°55.818 6.6 327 5.6 99500 47
2011-02-15 11:10 51°33.15 2°55.885 5.9 326 5.6 99510 48
2011-02-15 11:11 51°33.11 2°55.957 8.5 322 5.6 99500 48
2011-02-15 11:12 51°33.053 2°56.036 6.9 328 5.7 99490 47
2011-02-15 11:13 51°33.026 2°56.158 7.8 340 5.7 99500 47
2011-02-15 11:14 51°33.042 2°56.255 7.7 359 5.6 99490 47
2011-02-15 11:15 51°33.072 2°56.316 8.8 3 5.6 99500 49
2011-02-15 11:16 51°33.102 2°56.358 7.8 6 5.6 99490 49
2011-02-15 11:17 51°33.13 2°56.388 8.3 8 5.5 99490 49
2011-02-15 11:18 51°33.156 2°56.411 5.8 7 5.6 99490 48
2011-02-15 11:19 51°33.18 2°56.429 7 6 5.6 99490 49
2011-02-15 11:20 51°33.206 2°56.441 7.6 15 5.5 99480 48
2011-02-15 11:21 51°33.231 2°56.45 8.7 22 5.6 99490 48
2011-02-15 11:22 51°33.257 2°56.457 7.8 24 5.6 99490 48
2011-02-15 11:23 51°33.282 2°56.465 7.6 18 5.6 99490 48
2011-02-15 11:24 51°33.305 2°56.47 6.8 25 5.7 99490 50
2011-02-15 11:25 51°33.329 2°56.474 8 23 5.7 99490 48
2011-02-15 11:26 51°33.353 2°56.477 5.2 28 5.6 99490 48
2011-02-15 11:27 51°33.377 2°56.478 7.3 26 5.7 99490 49
2011-02-15 11:28 51°33.4 2°56.48 6.7 26 5.7 99490 47
2011-02-15 11:29 51°33.424 2°56.482 6.7 31 5.7 99490 50
2011-02-15 11:30 51°33.448 2°56.486 6.4 29 5.7 99490 49
2011-02-15 11:31 51°33.472 2°56.49 7.8 26 5.6 99490 49
2011-02-15 11:32 51°33.495 2°56.495 6.9 28 5.6 99480 50
2011-02-15 11:33 51°33.52 2°56.502 7.3 28 5.6 99480 48
2011-02-15 11:34 51°33.547 2°56.51 6.7 28 5.7 99480 48
2011-02-15 11:35 51°33.588 2°56.527 5.7 35 5.7 99480 50
2011-02-15 11:36 51°33.637 2°56.529 5.1 22 5.7 99490 47
2011-02-15 11:37 51°33.673 2°56.473 4.4 260 5.8 99490 48
2011-02-15 11:38 51°33.647 2°56.429 10.3 23 5.8 99480 50
2011-02-15 11:39 51°33.62 2°56.436 8.8 22 5.8 99470 49
2011-02-15 11:40 51°33.604 2°56.443 7.9 20 5.9 99480 48
2011-02-15 11:41 51°33.591 2°56.456 7.7 316 5.9 99470 49
2011-02-15 11:42 51°33.581 2°56.472 8.4 21 5.9 99470 49
2011-02-15 11:43 51°33.571 2°56.489 7.3 320 5.9 99470 47
2011-02-15 11:44 51°33.563 2°56.509 6.8 320 6 99470 47
2011-02-15 11:45 51°33.556 2°56.53 8 321 6 99480 49
2011-02-15 11:46 51°33.549 2°56.55 9.5 318 6.1 99470 49
2011-02-15 11:47 51°33.542 2°56.566 6.7 318 6 99470 48
2011-02-15 11:48 51°33.534 2°56.58 6.6 319 6.1 99470 47
2011-02-15 11:49 51°33.523 2°56.597 7.4 318 6.1 99470 47
2011-02-15 11:50 51°33.513 2°56.618 4.6 318 6.1 99470 47
2011-02-15 11:51 51°33.503 2°56.638 7.1 25 6.1 99460 47
2011-02-15 11:52 51°33.494 2°56.65 6.4 22 6.1 99460 48
2011-02-15 11:53 51°33.486 2°56.643 7.5 248 6.2 99460 49
2011-02-15 11:54 51°33.444 2°56.57 6.9 25 6.2 99460 48
2011-02-15 11:55 51°33.332 2°56.381 10 26 6.2 99450 47
2011-02-15 11:56 51°33.22 2°56.196 8.8 21 6.2 99440 47
2011-02-15 11:57 51°33.156 2°56.202 7.4 335 6.2 99450 47
2011-02-15 11:58 51°33.163 2°56.303 6.5 11 6.2 99440 46
2011-02-15 11:59 51°33.228 2°56.343 4.3 44 6.1 99470 47
2011-02-15 12:00 51°33.281 2°56.346 6.7 41 6.1 99460 48
2011-02-15 12:01 51°33.329 2°56.336 4.5 22 6.1 99470 47
2011-02-15 12:02 51°33.36 2°56.304 6.8 21 6.1 99470 47
2011-02-15 12:03 51°33.372 2°56.257 6.1 260 6.1 99450 47
2011-02-15 12:04 51°33.366 2°56.176 6.8 255 6.2 99440 49
2011-02-15 12:05 51°33.326 2°55.996 7 249 6.2 99440 48
2011-02-15 12:06 51°33.287 2°55.813 4.7 252 6.2 99440 49
2011-02-15 12:07 51°33.264 2°55.685 2.8 262 6.3 99440 49
2011-02-15 12:08 51°33.305 2°55.604 3.1 21 6.3 99450 47
2011-02-15 12:09 51°33.368 2°55.608 4.6 27 6.3 99440 46
2011-02-15 12:10 51°33.414 2°55.629 3.8 30 6.3 99440 48
2011-02-15 12:11 51°33.446 2°55.645 5 27 6.2 99440 46
2011-02-15 12:12 51°33.467 2°55.651 4.9 23 6.2 99430 49
2011-02-15 12:13 51°33.48 2°55.648 5.8 30 6.2 99440 47
2011-02-15 12:14 51°33.489 2°55.645 5.7 32 6.2 99430 46
2011-02-15 12:15 51°33.494 2°55.643 5.7 38 6.2 99440 49
2011-02-15 12:16 51°33.504 2°55.645 5.2 38 6.2 99430 47
2011-02-15 12:17 51°33.527 2°55.649 5.1 39 6.2 99440 49
2011-02-15 12:18 51°33.556 2°55.656 4.6 36 6.2 99440 48
2011-02-15 12:19 51°33.586 2°55.667 5 32 6.2 99440 47
2011-02-15 12:20 51°33.614 2°55.679 5.4 32 6.2 99440 48
2011-02-15 12:21 51°33.65 2°55.704 6.2 13 6.2 99440 49
2011-02-15 12:22 51°33.674 2°55.788 8.7 345 6.3 99440 47
2011-02-15 12:23 51°33.65 2°55.867 8.1 326 6.3 99430 49
2011-02-15 12:24 51°33.593 2°55.902 8.3 20 6.3 99440 48
2011-02-15 12:25 51°33.527 2°55.906 8.8 319 6.3 99430 47
2011-02-15 12:26 51°33.466 2°55.947 7.5 326 6.4 99430 47
2011-02-15 12:27 51°33.433 2°56.004 8.2 328 6.4 99430 48
2011-02-15 12:28 51°33.418 2°56.055 7.4 335 6.4 99430 48
2011-02-15 12:29 51°33.387 2°56.086 8.6 20 6.4 99440 47
2011-02-15 12:30 51°33.304 2°56.067 6.8 316 6.4 99440 46
2011-02-15 12:31 51°33.199 2°56.068 10.2 319 6.5 99440 47
2011-02-15 12:32 51°33.094 2°56.118 10.5 328 6.5 99430 46
2011-02-15 12:33 51°33.037 2°56.208 5.6 330 6.5 99440 46
2011-02-15 12:34 51°33.004 2°56.254 6.6 331 6.5 99430 47
2011-02-15 12:35 51°33.002 2°56.333 7 -999 6.5 99430 47
2011-02-15 12:36 51°33.054 2°56.392 3.8 28 6.5 99430 46
2011-02-15 12:37 51°33.105 2°56.411 4.7 32 6.4 99440 46
2011-02-15 12:38 51°33.145 2°56.425 5.8 33 6.4 99430 46
2011-02-15 12:39 51°33.179 2°56.439 5.3 31 6.4 99440 48
2011-02-15 12:40 51°33.203 2°56.445 4.7 26 6.4 99430 46
2011-02-15 12:41 51°33.235 2°56.461 3.9 34 6.5 99430 48
2011-02-15 12:42 51°33.287 2°56.46 0.1 22 6.4 99440 48
2011-02-15 12:43 51°33.322 2°56.418 5.1 28 6.5 99440 47
2011-02-15 12:44 51°33.333 2°56.372 6.8 24 6.5 99430 49
2011-02-15 12:45 51°33.321 2°56.342 6 22 6.5 99420 49
2011-02-15 12:46 51°33.292 2°56.326 5.6 22 6.6 99420 47
2011-02-15 12:47 51°33.255 2°56.327 8.3 321 6.6 99430 47
2011-02-15 12:48 51°33.228 2°56.339 5.8 322 6.6 99430 47
2011-02-15 12:49 51°33.211 2°56.35 5.3 324 6.7 99420 47
2011-02-15 12:50 51°33.2 2°56.362 5.3 324 6.7 99430 48
2011-02-15 12:51 51°33.192 2°56.376 4.7 332 6.7 99430 47
2011-02-15 12:52 51°33.187 2°56.391 5.9 326 6.7 99430 47
2011-02-15 12:53 51°33.182 2°56.408 5.6 332 6.8 99430 48
2011-02-15 12:54 51°33.181 2°56.426 5.7 339 6.8 99410 47
2011-02-15 12:55 51°33.182 2°56.441 4.5 335 6.8 99420 46
2011-02-15 12:56 51°33.185 2°56.457 6.5 339 6.8 99420 46
2011-02-15 12:57 51°33.189 2°56.473 6.6 338 6.9 99410 46
2011-02-15 12:58 51°33.196 2°56.489 5.7 346 6.9 99420 46
2011-02-15 12:59 51°33.205 2°56.508 6.2 344 6.9 99400 45
2011-02-15 13:00 51°33.219 2°56.529 4.9 355 6.8 99400 46
2011-02-15 13:01 51°33.223 2°56.573 6.3 342 6.8 99400 46
2011-02-15 13:02 51°33.193 2°56.579 7.3 18 6.9 99410 46
2011-02-15 13:03 51°33.175 2°56.48 8 249 6.9 99400 46
2011-02-15 13:04 51°33.157 2°56.338 9.4 22 6.9 99400 45
2011-02-15 13:05 51°33.14 2°56.203 8.1 22 6.9 99410 46
2011-02-15 13:06 51°33.128 2°56.132 8.9 19 6.9 99400 46
2011-02-15 13:07 51°33.125 2°56.09 7.3 22 6.9 99400 44
2011-02-15 13:08 51°33.129 2°56.063 9.2 23 7 99390 46
2011-02-15 13:09 51°33.139 2°56.045 7.1 248 6.9 99400 45
2011-02-15 13:10 51°33.154 2°56.033 7.6 18 7 99400 45
2011-02-15 13:11 51°33.17 2°56.022 6.1 23 6.9 99400 46
2011-02-15 13:12 51°33.187 2°56.015 6.9 22 6.9 99400 45
2011-02-15 13:13 51°33.206 2°56.009 7.7 19 7 99410 46
2011-02-15 13:14 51°33.225 2°56.004 7.1 250 7 99410 45
2011-02-15 13:15 51°33.245 2°55.999 6.5 257 7 99410 45
2011-02-15 13:16 51°33.263 2°55.974 5 266 6.9 99390 46
2011-02-15 13:17 51°33.302 2°55.927 0.8 26 6.9 99400 44
2011-02-15 13:18 51°33.361 2°55.932 1.8 37 6.9 99410 44
2011-02-15 13:19 51°33.404 2°55.964 7 33 6.8 99410 45
2011-02-15 13:20 51°33.438 2°55.993 6.8 26 6.8 99390 43
2011-02-15 13:21 51°33.465 2°56.018 6.5 21 6.8 99390 45
2011-02-15 13:22 51°33.488 2°56.04 7.6 22 6.8 99390 44
2011-02-15 13:23 51°33.51 2°56.057 5.4 12 6.7 99390 45
2011-02-15 13:24 51°33.529 2°56.071 5 12 6.8 99400 46
2011-02-15 13:25 51°33.548 2°56.082 6.6 14 6.7 99390 45
2011-02-15 13:26 51°33.567 2°56.093 0.2 15 6.7 99390 46
2011-02-15 13:27 51°33.586 2°56.125 5.9 7 6.7 99390 45
2011-02-15 13:28 51°33.588 2°56.21 6.3 351 6.7 99380 45
2011-02-15 13:29 51°33.536 2°56.325 8.2 336 6.7 99380 45
2011-02-15 13:30 51°33.408 2°56.487 15.6 335 6.7 99380 44
2011-02-15 13:31 51°33.234 2°56.666 13 338 6.8 99390 45
2011-02-15 13:32 51°33.061 2°56.859 13.4 335 6.7 99380 44
2011-02-15 13:33 51°32.889 2°57.052 14 338 6.8 99380 44
2011-02-15 13:34 51°32.716 2°57.252 16.3 337 6.8 99380 44
2011-02-15 13:35 51°32.542 2°57.434 15.2 332 6.8 99380 44
2011-02-15 13:36 51°32.345 2°57.502 12.8 326 6.8 99370 43
2011-02-15 13:37 51°32.142 2°57.449 12.9 322 6.8 99390 45
2011-02-15 13:38 51°31.946 2°57.382 15.3 321 6.8 99380 45
2011-02-15 13:39 51°31.741 2°57.317 12.9 322 6.8 99340 45
2011-02-15 13:40 51°31.568 2°57.249 11 318 6.8 99340 44
2011-02-15 13:41 51°31.525 2°57.129 5.3 266 6.8 99350 44
2011-02-15 13:42 51°31.62 2°57.098 5.6 36 6.8 99400 45
2011-02-15 13:43 51°31.693 2°57.176 8.5 20 6.8 99390 43
2011-02-15 13:44 51°31.717 2°57.186 8.4 17 6.7 99390 43
2011-02-15 13:45 51°31.738 2°57.18 7.8 22 6.7 99380 45
2011-02-15 13:46 51°31.759 2°57.23 8.5 1 6.7 99400 44
2011-02-15 13:47 51°31.77 2°57.269 7.8 358 6.7 99390 45
2011-02-15 13:48 51°31.777 2°57.305 9.9 344 6.6 99380 45
2011-02-15 13:49 51°31.74 2°57.318 8 23 6.6 99380 46
2011-02-15 13:50 51°31.722 2°57.274 7.1 21 6.7 99380 45
2011-02-15 13:51 51°31.724 2°57.237 10 24 6.7 99380 45
2011-02-15 13:52 51°31.726 2°57.212 6.6 23 6.7 99380 44
2011-02-15 13:53 51°31.728 2°57.193 7.3 20 6.7 99380 45
2011-02-15 13:54 51°31.72 2°57.187 6.3 329 6.7 99380 46
2011-02-15 13:55 51°31.716 2°57.194 6.3 336 6.7 99370 45
2011-02-15 13:56 51°31.713 2°57.207 8.2 334 6.7 99370 45
2011-02-15 13:57 51°31.71 2°57.221 6 334 6.7 99380 47
2011-02-15 13:58 51°31.708 2°57.228 7.7 329 6.7 99370 47
2011-02-15 13:59 51°31.7 2°57.227 7.6 317 6.7 99370 45
2011-02-15 14:00 51°31.684 2°57.216 8.9 315 6.7 99370 44
2011-02-15 14:01 51°31.673 2°57.204 8.5 316 6.7 99370 44
2011-02-15 14:02 51°31.689 2°57.198 7.7 22 6.7 99370 45
2011-02-15 14:03 51°31.709 2°57.19 12 257 6.7 99370 44
2011-02-15 14:04 51°31.728 2°57.183 6.7 260 6.8 99370 44
2011-02-15 14:05 51°31.751 2°57.155 7.1 267 6.8 99370 45
2011-02-15 14:06 51°31.796 2°57.107 4.2 22 6.7 99380 45
2011-02-15 14:07 51°31.854 2°57.112 5 38 6.8 99390 45
2011-02-15 14:08 51°31.896 2°57.134 6.3 35 6.7 99390 44
2011-02-15 14:09 51°31.928 2°57.154 7.3 30 6.7 99380 44
2011-02-15 14:10 51°31.955 2°57.17 8.6 29 6.7 99380 44
2011-02-15 14:11 51°31.981 2°57.188 8.7 19 6.7 99380 45
2011-02-15 14:12 51°31.995 2°57.233 9 353 6.7 99380 44
2011-02-15 14:13 51°31.97 2°57.274 9.1 327 6.7 99360 43
2011-02-15 14:14 51°31.887 2°57.239 13.7 324 6.7 99350 44
2011-02-15 14:15 51°31.704 2°57.177 13.3 323 6.7 99340 44
2011-02-15 14:16 51°31.505 2°57.102 12.6 323 6.8 99330 42
2011-02-15 14:17 51°31.305 2°57.027 13 324 6.8 99320 43
2011-02-15 14:18 51°31.108 2°56.948 11.3 323 6.8 99330 44
2011-02-15 14:19 51°30.904 2°56.865 13.2 324 6.8 99330 44
2011-02-15 14:20 51°30.705 2°56.786 15.1 324 6.8 99330 45
2011-02-15 14:21 51°30.498 2°56.704 12.5 324 6.8 99330 44
2011-02-15 14:22 51°30.294 2°56.619 13.6 323 6.8 99320 45
2011-02-15 14:23 51°30.09 2°56.532 12.9 324 6.8 99330 45
2011-02-15 14:24 51°29.887 2°56.447 14.4 323 6.8 99310 42
2011-02-15 14:25 51°29.687 2°56.366 12.7 322 6.8 99320 43
2011-02-15 14:26 51°29.481 2°56.283 14 322 6.8 99310 42
2011-02-15 14:27 51°29.283 2°56.202 16.1 322 6.8 99310 41
2011-02-15 14:28 51°29.082 2°56.12 12.2 320 6.8 99320 41
2011-02-15 14:29 51°28.88 2°56.034 13.9 321 6.9 99310 41
2011-02-15 14:30 51°28.68 2°55.95 17.4 318 6.8 99300 40
2011-02-15 14:31 51°28.476 2°55.866 8.4 318 6.9 99290 40
2011-02-15 14:32 51°28.278 2°55.785 17.5 319 6.9 99280 38
2011-02-15 14:33 51°28.072 2°55.7 15.4 319 6.9 99280 39
2011-02-15 14:34 51°27.87 2°55.613 13.9 319 7 99270 40
2011-02-15 14:35 51°27.667 2°55.527 17.1 316 6.9 99290 39
2011-02-15 14:36 51°27.465 2°55.441 16.7 317 7 99270 38
2011-02-15 14:37 51°27.263 2°55.354 17.3 318 7 99290 39
2011-02-15 14:38 51°27.061 2°55.266 16.7 317 7 99280 38
2011-02-15 14:39 51°26.856 2°55.176 17.9 24 7 99290 39
2011-02-15 14:40 51°26.655 2°55.088 16.6 22 7 99280 38
2011-02-15 14:41 51°26.449 2°54.999 18.8 318 7 99280 39
2011-02-15 14:42 51°26.242 2°54.905 13.9 319 7 99270 38
2011-02-15 14:43 51°26.042 2°54.815 13.7 318 7 99270 38
2011-02-15 14:44 51°25.834 2°54.722 15.6 318 7 99270 39
2011-02-15 14:45 51°25.634 2°54.629 14.4 318 7 99280 40
2011-02-15 14:46 51°25.425 2°54.538 12 318 7 99280 39
2011-02-15 14:47 51°25.223 2°54.449 13.7 24 7 99270 40
2011-02-15 14:48 51°25.013 2°54.355 14.5 316 7 99270 41
2011-02-15 14:49 51°24.805 2°54.263 17 316 7 99270 42
2011-02-15 14:50 51°24.599 2°54.17 11.9 26 7 99270 42
2011-02-15 14:51 51°24.393 2°54.073 11.9 317 7 99270 41
2011-02-15 14:52 51°24.185 2°53.98 13.6 315 6.9 99270 41
2011-02-15 14:53 51°23.981 2°53.932 13.5 319 7 99270 41
2011-02-15 14:54 51°23.783 2°53.809 15.1 24 7 99260 42
2011-02-15 14:55 51°23.588 2°53.626 11.5 23 7 99260 41
2011-02-15 14:56 51°23.406 2°53.452 13.1 24 6.9 99250 40
2011-02-15 14:57 51°23.217 2°53.272 12.4 26 6.9 99260 42
2011-02-15 14:58 51°23.023 2°53.085 11.8 287 6.9 99250 41
2011-02-15 14:59 51°22.851 2°52.887 12.1 26 6.9 99250 42
2011-02-15 15:00 51°22.662 2°52.687 12 285 6.9 99250 41
2011-02-15 15:01 51°22.472 2°52.537 15.5 317 6.9 99260 43
2011-02-15 15:02 51°22.256 2°52.53 14 324 6.9 99250 40
2011-02-15 15:03 51°22.042 2°52.526 12.1 320 7 99250 41
2011-02-15 15:04 51°21.826 2°52.517 15 322 7 99260 40
2011-02-15 15:05 51°21.614 2°52.505 15.9 324 7 99260 41
2011-02-15 15:06 51°21.396 2°52.488 13.1 322 7 99240 41
2011-02-15 15:07 51°21.181 2°52.473 14.3 282 7 99260 41
2011-02-15 15:08 51°20.967 2°52.456 13.3 322 7 99250 41
2011-02-15 15:09 51°20.753 2°52.438 14.5 320 7 99240 41
2011-02-15 15:10 51°20.542 2°52.422 13.4 322 7 99250 41
2011-02-15 15:11 51°20.328 2°52.404 14.8 321 7 99250 41
2011-02-15 15:12 51°20.112 2°52.383 15.7 321 7 99250 40
2011-02-15 15:13 51°19.895 2°52.362 13.9 321 7 99250 41
2011-02-15 15:14 51°19.678 2°52.343 14.1 320 7 99250 40
2011-02-15 15:15 51°19.457 2°52.317 14.1 322 7.1 99240 41
2011-02-15 15:16 51°19.239 2°52.301 14.5 318 7.1 99250 40
2011-02-15 15:17 51°19.021 2°52.281 13.7 324 7.1 99250 41
2011-02-15 15:18 51°18.804 2°52.26 16.5 318 7.1 99240 40
2011-02-15 15:19 51°18.587 2°52.237 15.4 322 7.1 99240 40
2011-02-15 15:20 51°18.37 2°52.244 14.4 322 7.1 99240 40
2011-02-15 15:21 51°18.153 2°52.254 13.4 322 7.1 99240 40
2011-02-15 15:22 51°17.935 2°52.267 13.4 322 7.1 99230 41
2011-02-15 15:23 51°17.721 2°52.275 11.4 321 7.1 99230 40
2011-02-15 15:24 51°17.504 2°52.285 13.8 321 7.1 99230 40
2011-02-15 15:25 51°17.286 2°52.3 12 320 7.1 99230 40
2011-02-15 15:26 51°17.072 2°52.331 14.2 326 7.2 99220 40
2011-02-15 15:27 51°16.861 2°52.414 12.9 328 7.2 99240 40
2011-02-15 15:28 51°16.676 2°52.567 14 331 7.2 99220 38
2011-02-15 15:29 51°16.485 2°52.733 15.2 332 7.2 99240 40
2011-02-15 15:30 51°16.296 2°52.891 13.7 332 7.2 99230 40
2011-02-15 15:31 51°16.12 2°53.076 14.1 333 7.2 99210 40
2011-02-15 15:32 51°15.948 2°53.26 14.7 332 7.2 99220 38
2011-02-15 15:33 51°15.774 2°53.46 15.3 338 7.3 99230 40
2011-02-15 15:34 51°15.606 2°53.658 13.9 333 7.3 99200 39
2011-02-15 15:35 51°15.437 2°53.858 15.3 335 7.3 99240 39
2011-02-15 15:36 51°15.272 2°54.075 15.6 335 7.3 99270 38
2011-02-15 15:37 51°15.101 2°54.28 14.2 338 7.3 99260 39
2011-02-15 15:38 51°14.93 2°54.481 15 335 7.4 99260 38
2011-02-15 15:39 51°14.763 2°54.688 15.7 337 7.4 99260 38
2011-02-15 15:40 51°14.593 2°54.893 15.2 338 7.4 99260 38
2011-02-15 15:41 51°14.43 2°55.1 11.4 335 7.4 99260 38
2011-02-15 15:42 51°14.277 2°55.279 13.5 332 7.4 99270 38
2011-02-15 15:43 51°14.141 2°55.404 14.2 328 7.3 99220 40
2011-02-15 15:44 51°14.023 2°55.488 11 325 7.3 99250 39
2011-02-15 15:45 51°13.922 2°55.561 11.9 324 7.2 99240 40
2011-02-15 15:46 51°13.84 2°55.62 9.1 334 7.2 99260 40
2011-02-15 15:47 51°13.777 2°55.698 9.5 281 7.2 99260 40
2011-02-15 15:48 51°13.722 2°55.792 8.4 337 7.1 99250 39
2011-02-15 15:49 51°13.686 2°55.87 7.1 341 7.1 99270 40
2011-02-15 15:50 51°13.666 2°55.944 6.5 355 7 99260 40
2011-02-15 15:51 51°13.664 2°55.956 5.3 346 7 99270 41